Regional Weather Roundup
Issued by NWS

Home | Current Version | Previous Version | Text Only | Print | Product List | Glossary Off
Versions: 1 2 3 4 5 6 7 8 9 10 11 12 13 14 15 16 17 18 19 20 21 22 23 24 25 26 27 28 29 30 31 32 33 34 35 36 37 38 39 40 41 42 43 44 45 46 47 48 49 50

062
ASUS43 KMPX 212310
RWRMN
WEATHER ROUNDUP FOR MINNESOTA
NATIONAL WEATHER SERVICE TWIN CITIES/CHANHASSEN MN
600 PM CDT THU MAY 21 2015


NOTE: "FAIR" INDICATES FEW OR NO CLOUDS BELOW 12,000 FEET WITH NO
SIGNIFICANT WEATHER AND/OR OBSTRUCTIONS TO VISIBILITY. N/A MEANS
CURRENT SKY AND/OR WEATHER CONDITIONS ARE NOT AVAILABLE.

MNZ060>063-068>070-220000-
   Twin Cities Metro

CITY           SKY/WX    TMP DP  RH WIND       PRES   REMARKS
TWIN CITIES    SUNNY     72  27  18 NW14      30.02S
ST PAUL        SUNNY     71  35  26 NW15      30.02S
CRYSTAL        SUNNY     73  31  21 NW14G23   30.02S
BLAINE         SUNNY     73  36  25 N10G18    30.02S
LAKEVILLE      SUNNY     70  34  26 NW14G20   30.02S
EDEN PRAIRIE   SUNNY     72  34  24 N13G18    30.02S
SOUTH ST PAUL  SUNNY     72  32  23 N9G21     30.01S
LAKE ELMO      FAIR      70  30  23 N13G21    30.03S
$$
MNZ001>005-007-008-013>017-022>024-027-028-220000-
   Northwest Minnesota

CITY           SKY/WX    TMP DP  RH WIND       PRES   REMARKS
BEMIDJI        SUNNY     65  32  28 N13       30.09S
HALLOCK        SUNNY     66  32  28 N12       30.12S
ROSEAU         SUNNY     68  30  24 NE5       30.09S
WARROAD        SUNNY     61  37  41 E6        30.10F
THIEF RVR FALL SUNNY     66  32  28 N12       30.11S
CROOKSTON      SUNNY     68  36  30 N13       30.11F
FOSSTON        SUNNY     68  32  26 NW6       30.11S
DETROIT LAKES  SUNNY     68  32  26 N6G20     30.11S
MOORHEAD       SUNNY     68  36  30 N9        30.11S
PARK RAPIDS    SUNNY     68  29  23 N9        30.07S
MAHNOMEN       FAIR      67  31  26 N9G16     30.10S
$$
MNZ006-009>011-018-025>026-220000-
   North Central Minnesota

CITY           SKY/WX    TMP DP  RH WIND       PRES   REMARKS
BAUDETTE       MOSUNNY   63  31  30 N13       30.09F
FLAG ISLAND    SUNNY     61  32  33 N10       30.08F
INTL FALLS     SUNNY     63  28  26 N13       30.07S
WASKISH        SUNNY     63  36  36 N10       30.09S
BIG FORK       SUNNY     64  27  24 NW7       30.07S
LONGVILLE      SUNNY     64  28  25 NW10      30.08S
GRAND RAPIDS   SUNNY     64  30  27 N17       30.06S
CRANE LAKE     SUNNY     61  25  25 NW8       30.07S
COOK           SUNNY     63  28  27 N10G16    30.06S
WALKER         FAIR      64  27  24 N6G16     30.08S
$$
MNZ012-019>021-037-220000-
   Northeast Minnesota

CITY           SKY/WX    TMP DP  RH WIND       PRES   REMARKS
DULUTH         SUNNY     67  24  19 NW15G24   30.01S
ELY            SUNNY     63  25  23 N6G17     30.03S
HIBBING        SUNNY     65  27  23 NW21      30.04R
EVELETH        SUNNY     63  27  25 N8G21     30.05S
DULUTH HARBOR  SUNNY     55  43  62 NE5       30.01S
TWO HARBORS    SUNNY     70  36  28 NW10G16   29.99R
SILVER BAY     SUNNY     66  25  20 N8        29.99R
GRAND MARAIS     N/A     45  33  63 SW5       30.00S
G MARAIS ARPRT SUNNY     57  21  24 NW9G20    30.01R
$$
MNZ029>031-032-039>041-046>048-054>057-064-220000-
   West Central Minnesota

CITY           SKY/WX    TMP DP  RH WIND       PRES   REMARKS
FERGUS FALLS   SUNNY     68  34  28 N9G16     30.09F
WHEATON        SUNNY     66  28  24 NW13G21   30.12S
MORRIS         SUNNY     72  34  25 NW17      30.08F
ALEXANDRIA     SUNNY     67  29  24 N15       30.09F
ELBOW LAKE     FAIR      67  34  30 NW10G18   30.09F
WADENA         SUNNY     66  36  32 NW15      30.07S
GLENWOOD       SUNNY     70  34  26 NW10G17   30.09F
APPLETON       SUNNY     72  28  20 N16       30.09S
BENSON         SUNNY     70  28  21 N12G17    30.08F
ORTONVILLE     SUNNY     72  28  20 N14G22    30.09F
MADISON        SUNNY     72  27  18 N14G20    30.09S
WILLMAR        FAIR      72  34  25 N15       30.08F
$$
MNZ033>034-036-042>043-049>051-058-059-220000-
   Central Minnesota

CITY           SKY/WX    TMP DP  RH WIND       PRES   REMARKS
ST CLOUD       SUNNY     70  31  23 N10       30.04F
SAUK CENTRE    FAIR      68  33  27 NW10      30.07F
PAYNESVILLE    SUNNY     66  35  32 W10       30.07S
AITKIN         SUNNY     68  25  19 NW7       30.04S
PINE RIVER     SUNNY     66  36  32 N13       30.10S
BRAINERD       SUNNY     67  32  27 N14       30.06F
STAPLES        SUNNY     68  28  22 NW9       30.07S
LONG PRAIRIE   FAIR      68  32  26 NW12G18   30.07F
LITTLE FALLS   SUNNY     68  28  22 NW9       30.06S
LITCHFIELD     SUNNY     72  36  26 NW12      30.06F
BUFFALO        SUNNY     71  31  23 NW9       30.05S
MAPLE LAKE     SUNNY     71  35  27 NW13      30.05F
$$
MNZ037-044-045-052-053-220000-
   East Central Minnesota

CITY           SKY/WX    TMP DP  RH WIND       PRES   REMARKS
PRINCETON      SUNNY     70  30  23 NW13G18   30.05S
MORA           SUNNY     64  32  29 NW9       30.05S
CAMBRIDGE      SUNNY     72  45  37 NW13      30.02S
RUSH CITY      SUNNY     68  34  27 NW10G21   30.03S
MOOSE LAKE     SUNNY     68  32  26 NW12G17   30.01S
HINCKLEY       FAIR      68  32  26 NW7       30.02S
CLOQUET        SUNNY     66  21  18 W9        30.02S
MCGREGOR       SUNNY     68  32  26 NW13G18   30.04F
$$
MNZ071>073-080-081-089-090-097-098-220000-
   Southwest Minnesota

CITY           SKY/WX    TMP DP  RH WIND       PRES   REMARKS
MONTEVIDEO     SUNNY     72  30  21 N15G23    30.09S
GRANITE FALLS  SUNNY     71  32  24 NW15      30.10S
CANBY          SUNNY     71  31  23 N12G17    30.11S
MARSHALL       SUNNY     72  19  14 N17G26    30.08S
REDWOOD FALLS  SUNNY     72  33  24 NW13      30.06F
OLIVIA         SUNNY     70  32  24 NW10      30.06S
PIPESTONE      SUNNY     72  30  21 N15G24    30.10F
WORTHINGTON    MOSUNNY   72  36  26 N21G29    30.09F
JACKSON        SUNNY     73  12   9 N16G28    30.09S
TRACY          SUNNY     73  20  13 N20G25    30.09S
SLAYTON        SUNNY     71  32  23 N18G28    30.10F
$$
MNZ065>067-074>077-082>085-091>093-220000-
   South Central Minnesota

CITY           SKY/WX    TMP DP  RH WIND       PRES   REMARKS
MANKATO        SUNNY     72  32  23 NW15      30.04F
NEW ULM        SUNNY     72  27  18 N12G23    30.05S
FAIRMONT       SUNNY     73  23  15 NW18      30.06S
GLENCOE        SUNNY     71  36  27 N12G22    30.04F
FARIBAULT      SUNNY     72  34  25 NW14      30.03F
OWATONNA       SUNNY     70  32  24 N17       30.03F
WASECA         SUNNY     72  34  25 NW18      30.05S
ALBERT LEA     SUNNY     72  28  20 NW16G23   30.03F
$$
MNZ078>079-086>088-094>096-220000-
   Southeast Minnesota

CITY           SKY/WX    TMP DP  RH WIND       PRES   REMARKS
ROCHESTER      SUNNY     70  33  25 N15       30.02S
RED WING       SUNNY     73  27  17 NW9       29.99S
STANTON        SUNNY     72  31  22 NW18G25   30.00F
DODGE CENTER   SUNNY     72  34  25 NW16G23   30.02F
WINONA         SUNNY     73  39  29 NW10G21   29.99S
AUSTIN         SUNNY     70  34  26 N15G24    30.02S
PRESTON        SUNNY     69  31  24 N10       30.01S
$$
ABBREVIATIONS USED IN REMARKS
   TC - TEMPERATURES IN CELSIUS
  WCI - WIND CHILL INDEX
   HX - HEAT INDEX
  VSB - VISIBILITY
$$



USA.gov is the U.S. government's official web portal to all federal, state and local government web resources and services.